GFSNE_con_mucape_000.txt.gz
CAPE
0 18 2 35 53 17 1 0 0 0 0 0 0 0 0 0 0 0 0 0 0 0 0 0 0 0 5 22 56 158 604 856 1379 1577 1698 1666 1616 1810
0 0 28 57 82 51 30 5 7 0 0 0 0 0 0 0 0 0 0 0 0 0 0 0 0 0 3 4 0 23 33 199 611 1049 1354 1385 1414 1298
32 49 42 52 62 72 67 34 22 7 17 0 0 0 0 0 0 0 0 0 0 0 0 0 0 0 0 1 2 0 0 0 5 142 777 1096 1186 1171
46 45 69 62 45 54 66 56 38 31 45 1 0 0 0 0 0 0 0 0 0 0 0 0 0 0 0 0 0 0 0 0 0 0 99 523 825 894
31 46 56 56 27 14 0 13 44 51 64 42 3 0 0 0 0 0 0 0 0 0 0 0 0 0 0 0 0 0 0 0 0 0 0 162 406 524
41 69 37 28 16 7 0 0 22 30 51 35 14 4 3 0 0 0 0 0 0 0 0 0 0 0 0 0 0 0 0 0 0 0 0 98 217 252
80 51 21 18 38 40 32 40 0 20 49 28 16 7 1 0 0 0 1 0 0 0 0 0 5 8 16 5 0 1 0 0 0 0 0 11 51 67
78 25 0 4 8 10 31 68 100 122 150 79 24 1 24 23 1 0 2 2 5 2 13 0 0 0 14 7 0 23 0 0 0 0 0 0 27 39
28 6 10 0 17 9 0 8 54 93 155 368 26 18 43 1 6 10 9 13 28 0 1 0 0 0 22 10 0 1 0 0 0 2 0 0 0 13
52 27 11 10 13 1 0 13 14 23 20 0 0 0 3 8 17 35 15 29 15 13 0 0 0 0 0 16 0 1 2 1 23 15 0 0 0 0
54 29 6 6 6 0 0 0 0 0 0 0 0 0 0 0 0 1 0 25 24 0 0 0 0 0 0 0 0 0 3 17 101 56 1 0 0 0
1 0 0 0 0 0 0 0 0 0 0 0 0 0 0 0 0 3 46 14 0 0 0 0 2 0 0 0 0 1 81 87 136 120 0 0 0 10
0 0 0 0 0 0 0 0 0 0 0 0 0 0 0 0 0 0 5 3 0 0 0 0 13 26 10 43 121 6 191 155 224 156 40 0 0 0
24 0 0 0 0 0 5 0 0 0 0 0 0 0 0 0 0 4 0 0 4 0 1 13 12 31 16 8 269 371 354 175 183 118 104 24 78 14
0 0 0 0 0 1 1 0 0 0 0 0 0 0 0 0 0 0 0 0 0 4 25 50 25 15 50 142 653 363 214 98 105 134 123 129 99 53
0 0 0 0 0 3 0 3 0 0 0 0 0 0 0 0 0 0 0 0 0 29 18 8 79 212 307 226 415 368 211 198 75 101 132 109 101 98
0 0 0 0 4 0 1 0 0 0 0 0 0 0 0 0 0 0 0 0 0 3 126 73 217 278 372 364 296 324 130 22 69 70 87 143 160 223
0 0 0 3 0 0 0 0 0 0 0 0 0 0 0 0 0 0 1 15 0 2 22 57 60 81 209 475 177 200 134 80 16 41 54 69 172 169
0 0 0 0 0 0 0 0 0 0 0 0 0 0 0 0 0 0 0 25 0 0 1 10 57 58 91 88 87 48 121 81 67 50 53 87 78 105
0 0 0 0 0 0 0 0 0 0 0 0 0 0 0 0 0 0 1 5 0 1 0 3 1 32 36 62 10 5 10 81 83 35 49 74 51 35
0 0 0 0 0 0 0 0 0 0 0 0 0 0 0 0 0 0 8 27 33 2 1 0 0 8 6 3 0 5 13 42 95 98 98 111 139 95
0 0 0 0 0 0 0 0 0 0 0 0 0 0 0 0 0 0 0 16 8 23 0 2 0 0 0 3 0 7 34 57 65 75 64 72 88 151
0 0 0 0 0 0 0 0 0 0 0 0 0 0 0 0 0 0 0 1 0 5 35 36 1 0 0 0 0 0 0 14 3 74 77 69 23 43

GFSNE_con_mucape_003.txt.gz
CAPE
241 428 257 134 166 173 205 99 77 32 24 8 0 0 0 0 0 0 0 0 0 0 0 0 0 0 0 0 0 2 43 146 325 866 1227 1425 1600 2153
72 398 500 213 294 591 335 157 97 71 22 24 24 1 0 0 0 0 0 0 0 0 0 0 0 0 0 0 0 0 2 2 14 129 587 1032 1245 1576
372 449 509 595 279 283 334 286 143 113 106 1 14 31 27 80 84 82 25 0 0 0 0 0 0 0 0 0 0 0 0 1 0 4 62 469 923 1182
178 402 397 281 554 426 270 286 162 209 125 108 75 42 111 135 170 220 125 0 0 0 0 0 0 0 0 0 0 0 0 0 0 0 5 3 316 743
302 391 424 526 515 231 263 140 94 289 169 137 85 56 74 147 188 275 240 121 19 0 0 0 0 0 0 0 0 0 0 0 0 0 0 0 0 22
434 488 576 562 422 299 202 229 257 234 161 151 112 76 110 336 229 235 120 45 20 4 1 0 0 0 0 0 0 0 0 0 0 0 0 0 0 0
652 858 708 612 179 116 71 196 220 187 115 93 109 88 121 136 241 161 146 80 120 26 14 8 8 5 1 5 6 1 0 0 0 0 0 0 0 0
936 728 771 128 84 23 16 44 91 195 258 214 99 228 529 353 276 278 142 41 14 22 64 24 15 5 8 15 7 0 0 6 0 0 0 0 0 0
942 799 617 181 58 119 17 0 17 18 78 308 335 380 379 399 358 151 23 26 18 19 53 22 23 27 11 2 3 0 0 0 0 0 0 0 0 0
609 534 417 323 180 48 57 38 79 132 181 106 135 173 144 56 14 24 30 39 27 32 127 73 46 15 0 3 0 0 0 0 0 0 0 0 0 0
542 383 121 102 20 0 0 4 32 58 7 0 0 0 0 0 0 2 0 24 26 38 5 4 0 0 0 0 0 0 0 0 0 0 0 0 0 0
339 77 42 0 0 0 0 0 29 52 4 0 0 0 0 1 0 12 6 20 18 8 0 0 0 0 0 0 0 12 17 0 1 0 1 0 22 23
223 119 5 0 0 0 0 1 1 0 0 0 0 1 2 2 3 5 7 24 95 17 2 0 0 0 2 2 7 19 74 25 11 0 41 43 131 36
338 63 6 0 0 0 0 0 0 0 0 0 1 1 0 0 0 0 0 2 12 25 1 5 0 6 11 2 0 32 138 64 249 121 189 198 235 86
26 0 0 0 0 0 0 0 0 0 0 0 0 0 0 0 0 0 0 1 4 8 2 0 9 23 13 54 7 44 75 294 277 226 233 285 235 28
0 0 0 0 0 0 0 0 0 0 0 0 0 0 0 0 0 0 0 0 0 1 0 4 2 8 10 79 73 132 213 394 197 194 241 250 239 65
0 0 0 0 0 0 0 0 0 0 0 0 0 0 0 0 0 0 0 0 2 0 0 0 68 7 56 89 172 125 260 355 399 210 198 189 193 75
0 0 0 0 0 0 0 0 0 0 0 0 0 0 0 0 0 0 0 0 1 0 0 0 7 48 28 25 112 170 137 290 161 219 217 140 183 165
0 0 0 0 0 0 0 0 0 0 0 0 0 0 0 0 0 0 0 0 6 8 0 0 1 26 56 111 158 134 216 242 165 55 41 167 105 150
0 0 0 0 0 0 0 0 0 0 0 0 0 0 0 0 0 0 0 0 2 1 3 9 0 0 1 9 21 105 100 78 88 71 52 29 62 36
0 0 0 0 0 0 0 0 0 0 0 0 0 0 0 0 0 0 0 0 5 6 4 6 0 0 0 4 0 0 1 33 28 71 64 3 86 48
0 0 0 0 0 0 0 0 0 0 0 0 0 0 0 0 0 0 0 0 1 0 15 38 0 10 4 0 0 0 0 7 40 51 29 33 66 226
0 0 0 0 0 0 0 0 0 0 0 0 0 0 0 0 0 0 0 0 2 4 17 27 21 2 0 0 0 0 4 3 28 14 44 4 94 66

GFSNE_con_mucape_006.txt.gz
CAPE
12 38 119 34 39 58 77 95 76 36 27 38 43 50 30 43 37 3 0 0 0 0 0 0 0 0 0 0 0 0 0 0 3 47 202 584 1407 1895
0 4 65 33 69 82 92 94 73 41 13 20 8 31 46 45 97 60 60 23 0 0 0 0 0 0 0 0 0 0 0 0 0 0 3 21 253 1074
0 62 211 420 193 74 72 53 64 80 82 7 12 24 50 120 100 144 127 86 69 40 1 0 0 0 0 0 0 0 0 0 0 0 1 3 0 235
32 165 324 245 358 429 188 204 167 179 127 204 183 55 349 68 79 225 207 87 97 75 23 0 0 0 0 0 0 0 0 0 0 0 0 0 2 1
108 245 311 332 401 207 235 102 113 109 141 122 133 131 71 46 181 478 463 445 114 160 51 24 0 0 0 0 0 0 0 0 0 0 0 0 0 1
220 324 492 506 406 384 294 317 323 212 285 117 166 99 140 205 186 97 95 106 68 115 103 17 5 0 0 0 0 0 0 0 0 0 0 0 0 0
371 478 622 739 347 320 173 475 331 197 144 133 114 97 50 105 298 107 96 159 363 377 171 26 5 8 7 2 3 4 0 0 0 0 0 0 0 0
710 892 1004 873 538 203 60 12 51 119 126 86 74 114 287 272 301 183 213 153 194 309 256 9 56 100 38 8 4 0 0 0 0 0 0 0 0 0
978 987 794 417 341 570 223 70 15 2 6 122 258 229 430 435 370 483 348 236 133 8 149 133 131 67 82 20 0 0 0 0 0 0 0 0 0 0
966 770 631 501 537 500 465 256 173 186 212 169 188 135 152 141 60 29 25 54 98 47 473 279 92 33 42 32 1 0 0 0 0 0 0 0 0 0
703 545 430 662 249 112 64 112 157 145 21 2 0 0 0 0 0 5 5 32 50 43 132 124 53 67 20 0 0 0 0 0 0 0 0 0 0 0
276 437 211 117 59 55 4 52 63 89 74 1 22 16 1 9 1 25 13 35 64 69 61 91 58 11 0 0 0 1 0 0 4 2 0 0 0 0
393 975 388 56 32 9 0 0 22 0 0 0 4 0 0 12 38 154 138 69 36 11 2 100 79 11 0 0 6 2 0 9 6 7 0 0 0 0
1177 386 109 69 4 0 0 0 0 0 0 5 2 0 2 14 17 10 6 3 0 37 126 401 105 0 0 4 2 3 25 1 21 31 56 0 0 0
393 110 29 0 0 0 0 0 0 0 10 1 0 0 1 3 1 17 30 56 88 209 115 335 55 3 0 41 19 8 14 35 52 483 346 26 0 0
22 0 0 0 0 0 0 0 1 4 0 0 0 1 1 2 3 0 0 0 7 38 156 149 55 0 7 22 12 30 11 25 60 316 187 95 8 31
0 0 0 5 5 13 17 9 4 0 0 0 0 0 0 0 0 0 0 0 30 47 13 33 38 1 0 8 19 46 18 4 98 179 155 185 186 172
0 0 1 3 3 7 8 2 0 0 0 0 0 0 0 0 0 0 0 0 28 60 0 6 275 0 0 7 2 2 29 71 67 125 278 195 163 154
0 0 0 0 0 0 0 0 0 0 0 0 0 0 0 0 0 0 0 0 10 1 5 14 265 0 0 0 2 1 6 37 65 29 258 332 337 182
0 0 0 0 0 0 0 0 0 0 0 0 0 0 0 0 0 0 0 0 10 24 1 27 20 2 0 0 0 0 0 16 51 67 116 278 493 252
0 0 0 0 0 0 0 0 0 0 0 0 0 0 0 0 0 0 0 0 0 16 0 11 11 4 2 0 0 0 0 0 3 47 80 41 295 138
0 0 0 0 0 0 0 0 0 0 0 0 0 0 0 0 0 0 0 0 7 7 3 1 3 0 0 3 0 0 0 4 0 0 18 14 2 7
0 0 0 0 0 0 0 0 0 0 0 0 0 0 0 0 0 0 0 0 0 0 0 31 1 14 10 5 0 0 0 0 5 8 28 6 0 0

GFSNE_con_mucape_009.txt.gz
CAPE
118 507 138 17 17 22 47 418 274 82 100 100 75 322 125 72 86 24 8 18 0 0 0 0 0 0 0 0 0 0 0 0 0 0 0 0 0 178
4 317 512 33 32 32 124 72 53 38 33 57 65 216 346 69 99 97 57 110 34 3 0 0 0 0 0 0 0 0 0 0 0 0 0 0 0 4
521 173 380 688 103 19 26 41 17 57 20 16 21 134 1119 741 469 442 169 430 117 43 34 0 0 0 0 0 0 0 0 0 0 0 0 0 0 0
209 644 337 199 1205 1485 168 1236 582 316 90 524 250 23 483 721 1063 1097 304 54 110 44 39 3 0 0 0 0 0 0 0 0 0 0 0 0 0 0
338 753 572 1129 1280 602 1007 474 278 408 290 45 68 86 79 26 180 765 650 278 231 49 15 12 10 0 0 0 0 0 0 0 0 0 0 0 0 0
861 824 913 1013 1145 1285 1029 1444 1008 565 343 182 102 97 160 190 395 122 124 45 67 89 73 15 45 61 2 0 0 0 0 0 0 0 0 0 0 0
649 566 891 1009 669 733 838 808 1253 465 252 178 161 144 166 165 191 207 244 213 91 161 130 342 320 317 134 28 77 34 1 0 0 0 0 0 0 0
920 1275 1351 708 449 207 227 181 144 478 584 159 177 160 384 355 142 127 315 161 13 215 321 200 101 102 126 311 164 16 0 0 0 0 0 0 0 0
1487 1178 1086 793 344 437 464 250 175 88 67 354 561 555 511 533 507 550 403 208 69 13 142 48 138 333 506 191 48 1 0 0 0 0 0 0 0 0
1405 1710 1808 1554 1036 1019 814 418 556 949 651 264 446 654 579 275 101 55 160 143 70 166 335 207 269 478 468 548 44 0 0 0 0 0 0 0 0 0
1645 1642 1311 1373 682 294 274 192 214 361 215 50 1 0 0 0 0 0 4 12 18 36 79 199 237 223 315 128 90 0 0 0 1 0 0 0 0 0
1428 1770 689 253 199 155 83 103 229 339 218 199 168 1 19 22 0 18 53 71 53 51 150 189 45 32 45 32 23 9 0 1 2 0 0 0 0 0
1224 989 768 285 82 50 34 40 93 20 103 0 0 3 149 160 19 131 519 125 49 35 27 9 0 88 261 107 9 0 3 14 1 2 3 1 2 4
1132 984 963 458 113 49 0 0 0 0 0 0 11 43 27 1 4 22 317 274 27 219 50 73 179 236 178 36 0 0 3 19 14 7 0 6 7 7
339 204 298 120 10 0 0 0 0 0 0 23 40 2 0 0 158 87 296 480 459 103 55 402 368 231 145 29 0 0 0 4 8 11 2 31 30 8
48 175 11 0 0 0 0 0 0 2 19 0 0 0 0 0 0 0 0 0 0 1 280 418 163 342 208 31 0 0 4 0 26 36 60 448 64 3
103 88 37 47 48 65 55 67 40 36 13 2 0 0 0 0 0 0 0 0 0 15 17 52 86 240 331 68 0 0 0 3 20 51 79 240 319 52
14 28 38 19 45 42 106 149 50 10 6 1 0 0 0 0 0 0 0 0 0 28 33 74 25 131 1 15 17 0 0 1 2 8 17 102 85 56
0 0 6 10 24 20 17 10 2 0 0 0 0 0 0 0 0 0 0 0 1 22 30 92 72 48 0 0 0 1 0 0 6 12 16 11 157 112
0 0 4 10 6 1 0 0 0 0 0 0 0 0 0 0 0 0 0 0 0 20 40 24 0 3 1 0 0 0 0 0 0 13 11 8 27 67
8 1 1 0 0 0 0 0 0 0 0 0 0 0 0 0 0 0 0 0 0 18 28 31 8 6 1 2 0 0 0 2 1 0 35 35 26 189
2 0 0 0 0 0 0 0 0 0 0 0 0 0 0 0 0 0 0 0 0 0 0 64 7 4 1 1 0 0 0 0 2 5 5 45 9 34
7 0 0 0 0 0 0 0 0 0 0 0 0 0 0 0 0 0 0 0 0 0 0 4 92 11 0 1 4 0 0 0 0 0 3 5 15 14

GFSNE_con_mucape_015.txt.gz
CAPE
0 0 0 0 0 0 0 0 0 0 0 7 6 36 28 10 13 11 2 2 9 0 0 0 0 0 0 0 0 0 0 0 0 0 0 0 0 0
107 51 0 2 8 2 4 1 0 0 0 0 0 0 8 25 38 24 7 51 23 4 0 0 0 0 7 10 0 0 0 0 0 0 0 0 0 0
58 0 98 6 19 2 51 1 0 2 2 0 0 0 26 0 0 9 2 12 14 13 0 0 0 0 0 4 11 2 0 0 0 0 0 0 0 0
18 10 1 18 38 11 115 75 181 98 47 1 12 9 0 6 40 47 12 25 43 4 0 0 0 2 6 5 0 0 0 0 0 0 0 0 0 0
162 30 17 1 3 82 84 110 175 88 129 87 31 24 22 37 27 0 0 0 34 66 40 38 12 3 7 4 0 5 2 0 0 0 0 0 0 0
236 269 198 10 13 336 236 264 174 241 147 87 58 23 34 36 32 50 0 0 0 0 5 10 0 0 0 0 0 0 0 0 0 0 0 0 0 0
280 237 107 111 142 207 311 184 337 339 255 191 72 7 0 0 20 17 2 0 0 0 0 0 0 0 0 1 0 3 0 0 0 0 0 0 0 0
337 509 363 313 436 581 483 415 373 364 380 240 68 9 0 0 34 31 0 0 0 0 0 0 0 0 0 0 0 0 0 0 0 0 8 0 0 0
508 517 657 410 229 258 238 370 397 234 304 109 42 33 5 0 50 64 0 0 0 0 0 0 0 0 2 1 0 0 0 1 5 4 3 9 0 0
462 586 525 491 289 641 624 640 434 229 260 212 70 51 43 117 105 106 36 0 0 0 0 0 0 0 0 0 0 1 0 0 0 0 0 0 0 0
226 414 560 463 452 493 443 476 418 452 204 379 434 446 293 197 216 150 14 25 0 0 0 0 0 0 0 0 0 0 0 0 0 0 0 0 0 0
345 248 345 418 480 353 212 219 185 158 192 201 253 222 126 53 23 27 26 12 18 6 0 9 6 0 0 0 0 0 0 0 0 0 0 0 0 0
371 340 266 298 442 366 314 246 191 205 170 103 85 6 0 0 0 13 38 50 19 12 17 15 0 0 0 0 0 0 0 0 0 0 0 0 0 0
326 376 381 515 266 384 430 102 69 27 0 0 0 0 0 0 5 8 2 12 23 8 0 0 2 4 22 20 0 0 0 0 0 0 0 0 0 0
505 354 338 311 318 293 207 60 2 0 0 0 0 0 0 4 0 0 0 0 0 0 0 0 0 4 52 42 14 0 0 0 0 0 0 0 0 0
415 323 117 23 38 50 25 0 0 0 0 0 0 0 0 0 0 0 0 0 0 0 0 0 2 71 43 20 11 2 0 0 0 0 0 0 0 0
173 34 23 9 0 0 0 1 11 7 4 4 7 0 0 0 0 0 0 0 0 0 0 0 1 44 43 46 8 0 1 0 0 1 0 0 0 0
0 22 33 7 0 49 68 34 6 13 20 19 2 0 0 0 0 0 0 0 0 0 0 0 0 6 7 4 19 0 0 1 0 7 0 0 0 0
24 83 57 0 0 0 4 8 2 22 10 0 0 0 0 0 0 0 0 0 0 0 0 0 0 10 25 17 1 5 16 0 5 0 0 0 0 8
9 0 0 0 0 0 0 0 0 0 0 0 0 0 0 0 0 0 0 0 0 0 0 0 0 1 30 9 3 0 0 0 0 0 0 0 0 0
0 0 2 0 0 0 0 0 0 0 0 0 0 0 0 0 0 0 0 0 0 0 0 0 0 10 3 8 0 0 0 0 0 0 0 0 0 4
0 0 0 0 0 0 0 0 0 0 0 0 0 0 0 0 0 0 0 0 0 0 0 0 0 4 3 7 0 0 0 0 0 0 0 0 0 1
0 0 0 0 0 0 0 0 0 0 0 0 0 0 0 0 0 0 0 0 0 0 0 0 0 3 18 0 0 0 0 0 0 0 0 0 6 6

GFSNE_con_mucape_021.txt.gz
CAPE
0 0 0 0 0 0 0 0 0 0 0 0 0 0 0 0 0 0 0 1 6 0 0 0 7 26 58 71 92 88 92 65 23 2 0 0 0 0
0 0 0 0 0 0 0 0 0 0 0 0 0 0 0 0 0 0 0 0 0 0 0 0 0 9 30 50 63 62 61 76 74 57 24 10 2 0
16 0 0 0 0 0 0 0 2 0 0 0 1 0 0 0 0 0 0 0 0 0 0 0 0 0 0 20 33 32 31 25 35 47 63 57 24 12
5 13 0 0 5 0 3 1 7 6 0 0 2 4 22 18 9 9 0 3 8 12 2 0 0 0 0 0 0 0 0 0 0 0 1 29 46 45
105 15 0 9 21 1 9 20 19 11 12 19 19 27 41 35 38 37 12 0 0 0 0 0 0 0 0 0 0 0 0 0 0 0 0 0 0 2
622 391 160 16 79 1 4 23 17 14 29 61 78 78 48 53 52 32 18 0 0 0 0 0 0 0 0 0 0 0 0 0 0 0 0 0 0 0
874 673 490 274 171 14 5 16 8 10 39 97 79 56 29 2 21 33 13 0 0 0 0 0 0 0 0 0 0 0 0 0 0 0 0 0 0 0
1299 1070 901 584 199 70 136 121 147 27 37 100 98 58 7 4 20 3 11 2 0 4 0 0 0 0 0 0 0 0 0 0 0 0 0 0 0 0
1619 1327 1145 1070 280 82 199 219 204 138 71 96 74 4 1 29 28 39 19 26 59 79 21 6 0 0 0 0 0 0 0 0 0 0 0 0 0 0
1778 1611 1433 1012 519 178 303 314 233 147 173 56 43 24 46 34 92 90 108 95 90 127 82 0 0 0 0 0 0 0 0 0 0 0 0 0 0 0
2407 1456 1407 807 463 309 464 325 149 146 135 93 71 151 196 105 55 76 106 38 0 0 0 0 0 0 0 0 0 0 0 0 0 0 0 0 0 0
1928 1526 794 553 540 523 502 389 149 153 103 29 18 37 37 19 7 0 0 0 0 0 0 0 0 0 0 0 0 0 0 0 0 0 0 0 0 0
1268 691 412 455 361 284 203 206 91 77 38 48 27 0 0 0 0 0 0 0 0 0 0 0 0 0 0 0 0 0 0 0 0 0 0 0 0 0
423 108 177 247 190 159 162 105 59 51 25 13 0 0 0 0 0 0 0 0 0 0 0 0 0 0 0 0 0 0 0 0 0 0 0 0 0 0
133 453 576 207 110 71 11 31 43 40 1 0 0 0 0 0 0 0 0 0 0 0 0 0 0 0 0 0 0 0 0 0 0 0 0 0 0 0
481 631 485 173 1 0 0 10 11 3 0 0 0 0 0 0 0 0 0 0 0 0 0 0 0 0 0 0 0 0 0 0 0 0 0 0 0 0
610 597 196 77 7 0 0 0 0 0 0 0 0 0 0 0 0 0 0 0 0 0 0 0 0 0 0 0 0 0 0 0 0 0 0 0 0 0
512 457 215 2 0 0 0 0 0 0 0 0 0 0 0 0 0 0 0 0 0 0 0 0 0 0 0 0 0 0 0 0 0 0 0 0 0 0
250 232 22 0 0 0 0 0 0 0 0 0 0 0 0 0 0 0 0 0 0 0 0 0 0 0 0 0 0 0 0 0 0 0 0 0 0 0
0 0 0 0 0 0 0 0 0 0 0 0 0 0 0 0 0 0 0 0 0 0 0 0 0 0 0 0 0 0 0 0 0 0 0 0 0 0
0 0 0 0 0 0 0 0 0 0 0 0 0 0 0 0 0 0 0 0 0 0 0 0 0 0 0 0 0 0 0 0 0 0 0 0 0 0
0 0 0 0 0 0 0 0 0 0 0 0 0 0 0 0 0 0 0 0 0 0 0 0 0 0 0 0 0 0 0 0 0 0 0 0 0 0
0 0 0 0 0 0 0 0 0 0 0 0 0 0 0 0 0 0 0 0 0 0 0 0 0 0 0 0 0 0 0 0 0 0 0 0 0 0

GFSNE_con_mucape_024.txt.gz
CAPE
0 0 0 0 0 0 0 0 0 0 0 0 0 0 0 0 0 6 106 25 3 20 1 0 0 15 46 66 74 69 99 128 118 84 44 18 0 0
9 0 0 0 0 0 0 0 0 0 0 0 0 0 0 0 0 43 14 2 7 10 5 4 9 18 23 40 58 68 70 66 60 70 79 62 39 22
11 0 0 0 0 0 0 0 0 0 0 0 0 0 0 6 0 0 0 2 2 4 0 3 0 0 3 0 0 0 10 16 35 49 59 67 76 65
148 0 0 0 0 0 0 0 1 0 1 9 0 0 0 0 1 15 3 0 1 0 0 0 0 0 0 0 0 0 0 0 0 0 0 0 14 53
567 445 155 34 4 6 0 0 0 1 0 0 6 0 0 1 4 3 1 1 0 0 0 0 0 0 0 0 0 0 0 0 0 0 0 0 0 0
792 737 619 430 230 93 18 0 0 11 11 4 4 3 26 43 14 12 25 5 3 3 1 0 0 0 0 0 0 0 0 0 0 0 0 0 0 0
1004 976 1017 795 414 364 65 8 0 2 11 9 10 15 43 21 15 2 4 11 6 0 3 0 0 0 0 0 0 0 0 0 0 0 0 0 0 0
1545 1474 1359 1207 886 516 149 51 0 9 14 13 1 34 40 45 15 11 1 13 7 9 6 15 27 1 0 0 0 0 0 0 0 0 0 0 0 0
1678 1660 1688 1432 1098 869 551 375 32 81 125 92 36 43 40 83 7 7 3 16 32 28 34 29 30 9 0 0 0 0 0 0 0 0 0 0 0 0
1753 2011 1924 1564 1457 1234 1015 422 29 107 130 42 61 47 6 21 0 1 20 39 64 78 10 4 0 0 0 0 0 0 0 0 0 0 0 0 0 0
2407 2600 2257 1889 1468 1154 796 257 36 118 79 40 58 33 20 19 23 5 19 26 12 0 0 0 0 0 0 0 0 0 0 0 0 0 0 0 0 0
2843 2841 2291 1682 1200 650 353 296 327 283 40 69 40 1 0 0 0 0 0 0 0 0 0 0 0 0 0 0 0 0 0 0 0 0 0 0 0 0
2592 2571 1911 1455 687 371 363 282 179 78 88 21 8 0 3 0 0 0 0 0 0 0 0 0 0 0 0 0 0 0 0 0 0 4 0 0 0 0
2682 1887 1506 579 186 66 42 57 42 60 6 6 7 0 0 0 0 0 0 0 0 0 0 0 0 0 0 0 0 0 0 0 0 0 6 0 0 0
2087 1162 267 80 78 74 47 17 1 2 11 0 0 0 0 0 0 0 0 0 0 0 0 0 0 0 0 0 0 0 0 0 0 0 0 0 0 0
719 204 274 311 172 28 12 0 0 6 14 0 0 0 0 0 0 0 0 0 0 0 0 0 0 0 0 0 0 0 0 0 0 0 0 0 0 0
232 308 383 369 36 0 0 0 0 1 0 0 0 0 0 0 0 0 0 0 0 0 0 0 0 0 0 0 0 0 0 0 0 0 0 0 0 0
359 423 314 116 0 0 0 0 0 0 0 0 0 0 0 0 0 0 0 0 0 0 0 0 0 0 0 0 0 0 0 0 0 0 0 0 0 0
384 352 283 126 0 0 0 0 0 0 0 0 0 0 0 0 0 0 0 0 0 0 0 0 0 0 0 0 0 0 43 0 0 0 0 0 0 0
332 277 236 45 0 0 0 0 0 0 0 0 0 0 0 0 0 0 0 0 0 0 0 0 0 0 0 0 0 0 0 0 0 0 0 0 0 0
175 124 55 0 0 0 0 0 0 0 0 0 0 0 0 0 0 0 0 0 0 0 0 0 0 0 0 0 0 0 0 0 0 0 0 0 0 0
1 0 0 0 0 0 0 0 0 0 0 0 0 0 0 0 0 0 0 0 0 0 0 0 0 0 0 0 0 0 0 0 0 0 0 0 0 0
0 0 0 0 0 0 0 0 0 0 0 0 0 0 0 0 0 0 0 0 0 0 0 0 0 0 0 0 0 0 0 0 0 0 0 0 0 0

GFSNE_con_mucape_027.txt.gz
CAPE
365 314 152 142 121 16 0 0 0 0 0 10 0 65 80 135 60 80 239 89 0 0 0 0 0 2 14 37 47 64 111 164 168 162 173 173 26 0
220 322 275 117 94 91 43 11 0 4 0 0 9 21 37 78 32 268 154 0 0 0 0 0 0 0 7 31 49 49 55 60 59 59 68 91 113 60
340 360 367 316 94 67 39 18 13 0 0 0 5 67 68 103 36 161 96 232 126 2 0 0 0 0 0 2 2 4 6 8 8 9 6 5 32 70
639 434 387 131 217 148 44 131 41 16 0 255 82 91 190 242 416 455 265 49 149 6 0 0 0 0 0 0 0 0 0 0 0 0 0 0 0 0
829 602 512 393 214 40 72 15 13 112 119 53 71 91 123 140 293 469 486 242 172 12 4 0 0 0 0 0 0 0 0 0 0 0 0 0 0 0
1032 773 636 573 496 370 184 223 168 146 169 146 105 96 160 269 277 263 224 101 44 32 33 2 0 0 0 0 0 0 0 0 0 0 0 0 0 0
1324 1093 872 797 784 789 652 447 619 359 153 189 201 196 128 110 34 204 101 67 84 101 163 270 271 166 136 0 0 0 0 0 0 0 0 0 0 0
1824 1427 1207 1144 1151 1051 919 550 607 693 695 293 296 350 502 54 269 122 94 153 95 65 244 332 432 542 469 421 14 0 0 0 0 0 0 0 0 0
2043 1877 1511 1510 1532 1448 1156 808 496 184 128 765 693 738 546 200 172 309 238 206 287 525 440 475 539 547 225 80 0 0 0 0 0 0 0 0 0 0
2076 1907 1683 1637 1630 1715 1272 1104 802 595 214 96 645 863 464 391 198 352 455 548 519 459 547 329 58 68 51 0 0 0 0 0 0 0 0 0 0 0
2136 1875 1669 1705 1630 1596 1345 1212 1026 941 309 58 56 9 11 14 42 358 331 204 148 88 56 0 3 4 0 0 0 0 0 0 0 0 0 0 0 0
2069 1804 1831 1833 2306 2159 1630 1264 1107 856 663 141 18 1 24 1 0 247 101 0 0 0 8 0 0 0 0 0 0 0 0 0 0 0 0 0 0 0
1910 1436 1890 1985 2549 2258 1489 1281 1052 988 365 353 90 66 2 0 0 0 0 0 0 0 4 0 0 0 0 0 0 0 0 0 0 0 0 0 0 0
1389 1479 1841 2522 2541 1927 1414 752 552 210 276 188 16 0 0 0 0 0 0 0 0 0 0 0 0 0 0 0 0 0 0 0 0 0 0 0 0 0
1655 1778 2348 2461 2369 1501 747 304 135 201 104 0 0 0 0 0 0 0 0 0 0 0 0 0 0 0 0 0 0 0 0 0 0 0 20 26 9 0
2100 2031 2128 1866 1253 403 144 125 194 226 31 0 0 0 0 0 0 0 0 0 0 0 0 0 0 0 0 0 0 0 0 0 0 25 35 10 0 0
1652 1510 1318 762 187 125 124 85 82 0 0 0 0 0 0 0 0 0 0 0 0 0 0 0 0 0 0 0 0 0 0 0 10 14 15 0 0 0
198 499 310 124 153 179 30 0 0 0 0 0 0 0 0 0 0 0 0 0 0 0 0 0 0 0 0 0 0 0 0 0 1 3 4 0 0 0
105 61 169 96 163 8 0 0 0 0 0 0 0 0 0 0 0 0 0 0 0 0 0 0 0 0 0 0 0 0 0 0 0 0 0 0 0 0
43 40 42 78 55 0 0 0 0 0 0 0 0 0 0 0 0 0 0 0 0 0 0 0 0 0 0 0 0 0 0 0 0 0 0 0 0 0
99 201 235 120 54 0 0 0 0 0 0 0 0 0 0 0 0 0 0 0 0 0 0 0 0 0 0 0 0 0 0 0 0 0 0 0 0 0
203 304 230 167 18 0 0 0 0 0 0 0 0 0 0 0 0 0 0 0 0 0 0 0 0 0 0 0 0 0 0 0 0 0 0 0 0 0
212 127 114 22 0 0 0 0 0 0 0 0 0 0 0 0 0 0 0 0 0 0 0 0 0 0 0 0 0 0 0 0 0 0 0 0 0 0

GFSNE_con_mucape_030.txt.gz
CAPE
851 830 307 46 134 65 37 1 0 1 14 60 0 6 1 7 120 278 373 470 179 46 9 0 0 1 1 20 78 129 161 320 366 337 333 175 144 148
771 540 754 68 108 115 59 14 2 0 0 10 4 4 5 2 78 255 234 116 114 19 0 0 0 0 11 30 34 43 50 58 70 100 125 134 102 72
1362 729 873 738 94 48 86 84 63 36 0 7 3 136 443 439 53 69 138 152 75 14 2 0 0 0 2 3 2 0 0 0 0 0 0 0 0 0
1981 1515 889 588 783 359 132 998 368 203 0 234 107 195 603 534 524 678 298 56 58 19 10 0 0 0 0 0 0 0 0 0 0 0 0 0 0 0
2289 2047 1490 765 852 485 389 235 116 146 275 36 32 235 149 354 569 738 626 617 235 21 0 0 0 0 0 0 0 0 0 0 0 0 0 0 0 0
2590 2331 1922 1416 1005 931 545 523 319 164 290 155 72 26 246 416 254 108 536 596 297 136 18 1 0 0 0 0 0 0 0 0 0 0 0 0 0 0
2739 2589 2282 1720 909 936 865 981 1382 621 376 236 227 165 200 248 489 288 199 309 353 487 310 205 167 219 278 54 58 63 0 0 0 0 0 0 0 0
3240 2791 2536 1406 1057 842 888 942 894 1274 1318 340 268 495 987 576 571 358 210 198 141 343 428 465 428 478 487 447 153 65 1 0 0 0 0 0 0 0
3449 3220 2739 2310 1511 1471 1172 1195 1066 939 541 1093 1035 1221 854 1289 1116 779 738 512 511 384 835 618 345 417 343 163 0 0 0 0 0 0 0 0 0 0
3584 3556 3885 3506 2435 1812 1709 1510 1386 1308 895 576 816 952 1525 943 1061 775 841 677 638 533 908 438 186 29 89 30 1 0 0 0 0 0 0 0 0 0
3671 3512 3594 3550 2621 1740 1878 1923 1715 1453 1182 1049 809 496 509 289 273 482 406 711 599 249 412 34 6 13 7 0 1 0 0 0 0 0 0 0 0 0
3804 3971 2227 2889 2390 1844 1580 1815 2004 1783 1305 1034 840 607 179 24 1 194 286 257 105 5 29 0 0 0 2 0 0 0 0 0 0 0 0 0 0 0
2551 2831 2827 1994 1876 1690 1586 1680 1867 1884 1414 1246 696 619 526 427 99 69 242 0 0 0 8 0 0 0 0 0 0 0 0 0 0 0 0 0 0 0
2968 2454 2672 1869 1358 1310 1567 1720 1451 1236 2141 1138 842 483 411 321 181 13 0 0 0 0 0 0 0 0 0 0 0 0 0 0 0 0 0 0 0 0
2522 2339 1830 1433 1130 1415 1629 1819 1361 1072 1001 781 507 491 270 160 22 0 0 0 0 0 0 0 0 0 0 0 0 0 0 0 0 0 0 5 21 18
1707 1763 1467 1176 1233 1729 1845 1406 1100 719 677 615 466 376 91 11 0 0 0 0 0 5 3 0 0 0 0 0 0 0 0 0 0 5 17 4 5 5
1505 1575 1018 1265 1342 1181 1007 924 410 549 455 554 376 121 12 7 0 1 0 0 5 0 0 1 0 0 0 0 0 0 0 0 0 7 10 0 0 1
1580 919 866 431 452 554 528 200 320 221 286 254 129 25 10 2 0 4 0 1 2 0 0 0 0 0 0 6 0 0 0 0 0 8 12 0 0 0
1419 936 565 265 100 78 42 216 321 127 109 39 28 17 3 2 1 8 0 0 0 0 0 0 0 0 0 0 0 0 0 0 0 0 0 0 0 0
719 526 279 104 57 25 50 110 170 66 51 5 4 2 0 6 8 0 0 0 0 0 0 0 0 0 0 0 0 0 0 0 0 0 0 0 0 0
521 369 218 120 120 70 111 121 80 11 0 0 0 1 3 4 0 0 0 0 0 0 0 0 0 0 0 0 0 0 0 0 0 0 0 0 0 0
337 320 405 269 157 183 109 66 32 0 0 1 2 1 0 0 0 0 0 0 0 0 0 0 0 0 0 0 0 0 0 0 0 0 0 0 0 0
376 318 189 151 280 225 53 3 5 0 6 1 0 0 0 0 0 0 0 0 0 0 0 0 0 0 0 0 0 0 0 0 0 0 0 0 0 0

GFSNE_con_mucape_033.txt.gz
CAPE
2098 1701 704 49 104 89 31 0 0 19 78 352 1 354 3 39 137 70 133 134 168 72 2 15 41 23 33 93 98 151 285 386 468 579 594 451 355 332
1008 2194 1899 128 154 94 43 21 0 0 5 50 47 40 78 40 149 45 122 298 310 114 10 0 0 0 3 18 45 122 216 259 299 330 361 372 284 176
2489 2464 2153 2223 113 56 74 52 43 41 4 0 9 798 448 335 218 321 169 594 52 0 0 1 0 0 0 15 28 28 13 22 13 17 0 32 32 12
2626 2695 1960 832 2090 1797 228 1555 451 737 76 1678 696 426 1065 1547 1437 1610 402 34 217 24 12 0 0 0 0 0 0 0 0 0 0 0 0 0 0 10
3464 3331 2717 2201 2260 733 845 426 243 496 486 181 113 175 269 535 1037 1419 1416 1138 453 37 5 2 0 0 0 0 0 0 0 0 0 0 0 0 0 0
3715 3664 3426 2811 2199 2333 1666 1605 1161 643 538 251 140 66 177 887 442 256 421 637 593 146 56 27 32 1 0 0 0 0 30 51 6 0 0 0 0 0
3966 3914 3728 3025 1897 1923 1369 1582 1470 851 319 272 290 304 137 413 886 631 602 183 590 146 463 290 733 236 240 41 62 91 128 182 139 53 0 0 0 0
4211 4130 3848 2418 1759 1330 931 1107 1461 2066 1756 830 709 768 2151 1282 620 386 526 195 290 752 440 458 955 833 366 179 119 64 37 0 0 0 0 0 0 0
4326 4294 3920 2713 2394 2196 1293 868 734 847 1034 2247 1981 1867 2173 1970 1905 984 1443 1050 570 629 776 405 350 301 59 1 0 0 0 0 0 0 0 0 0 0
4072 4258 4310 3464 3477 2976 2725 1515 1348 1150 1163 1165 1665 2057 2086 2005 1058 1607 1475 1220 1017 598 1150 264 238 47 0 0 0 0 0 0 0 0 0 0 0 0
3735 4154 4213 4284 3424 2221 3123 2985 2137 1674 1332 1402 1159 963 836 657 663 803 497 691 601 379 866 237 25 0 0 0 0 0 0 0 0 0 0 0 0 0
3593 4079 3077 3645 3523 2837 2807 3163 2677 2091 1602 1296 1185 917 900 780 536 743 434 278 316 163 502 43 8 0 0 0 0 0 0 0 0 0 0 0 0 0
3255 3414 3749 2729 3130 2925 2568 2840 2816 2730 1897 1535 1368 842 751 746 356 165 681 365 329 177 8 0 0 0 0 0 0 0 0 0 0 0 0 0 0 0
3267 3224 3401 2834 2342 2617 2648 2391 2128 1984 1923 1472 1279 1027 715 480 490 390 548 523 168 12 0 0 0 0 0 0 0 0 0 0 0 0 2 0 0 0
3193 2991 2555 2456 2235 2040 2232 2238 1842 1463 1532 1325 1064 881 833 596 815 749 549 301 54 0 0 0 0 0 0 0 0 0 0 0 0 0 0 12 21 22
2385 2377 2202 2139 2014 1990 1921 1803 1596 1341 1280 1167 828 881 539 454 83 34 9 0 0 0 9 1 0 0 0 0 0 0 0 0 0 0 4 0 2 6
2645 2246 1779 1845 1878 1824 1623 1099 919 869 822 760 470 404 300 99 71 71 4 0 2 10 8 0 12 2 0 0 0 0 0 0 0 2 4 0 0 1
2199 2251 1846 1600 1783 1698 1445 690 559 475 674 392 168 274 238 58 84 51 1 8 14 18 0 0 10 0 0 2 0 0 0 0 0 0 2 5 0 0
2148 1989 1735 1495 1605 1637 986 589 395 282 158 312 172 108 169 174 22 6 23 21 14 2 0 0 0 0 0 0 0 0 0 0 0 0 0 0 0 0
2220 1725 1598 1617 1336 1361 1191 616 278 254 159 91 102 156 168 112 9 9 67 46 9 0 0 0 0 0 0 0 0 0 0 0 0 0 0 0 0 0
1802 1630 1761 1481 1380 1231 699 269 522 284 249 67 133 183 89 18 11 27 52 5 0 0 0 0 0 0 0 0 0 0 0 0 0 0 0 0 0 0
932 1347 1128 1193 1163 630 290 224 291 23 96 154 199 117 65 13 14 47 6 0 0 0 0 0 0 0 0 0 0 0 0 0 0 0 0 0 0 0
294 42 135 510 334 141 209 162 173 80 98 143 66 65 36 11 19 4 0 0 0 0 0 0 0 0 0 0 0 0 0 0 0 0 0 0 0 0

GFSNE_con_mucape_036.txt.gz
CAPE
2497 2505 1738 1112 1104 920 852 607 670 534 720 904 253 212 654 220 77 1 76 0 0 0 0 0 0 0 0 44 109 172 137 309 470 550 561 544 478 486
2218 1978 1807 678 652 1091 757 781 577 474 394 577 553 390 131 544 305 503 429 77 1 0 0 0 0 1 10 31 53 15 35 62 100 231 371 412 470 367
2101 2192 1728 1389 1471 1024 774 807 903 714 463 402 1137 1405 917 413 120 416 271 415 45 0 5 6 0 0 1 0 0 0 0 0 0 0 6 47 72 68
2514 1982 2011 1418 1654 1782 1770 890 744 1084 893 1100 845 1159 1253 913 1083 1080 331 5 251 149 6 3 6 0 0 0 0 0 0 0 0 0 0 0 0 0
3009 2522 2147 1706 1556 930 1165 1057 988 1143 1408 673 758 1002 1294 1315 1012 1020 1278 805 636 66 6 8 16 9 0 0 0 0 0 0 0 3 3 0 0 0
3257 3000 2712 2161 1534 1589 1231 917 1138 1079 713 847 677 481 982 948 871 681 729 735 602 279 46 18 22 6 11 5 3 0 0 0 13 19 0 0 0 0
2970 3348 3043 2723 2105 1607 1387 1531 786 972 876 428 333 527 595 816 648 618 291 242 493 564 228 13 84 66 36 32 26 56 27 11 0 0 0 0 0 0
3272 3215 3204 2827 2612 2026 1577 1100 1302 734 499 247 346 485 638 875 1429 604 347 343 307 482 237 371 606 602 303 336 189 64 13 0 0 0 0 0 0 0
3241 3261 3317 3020 2698 2456 2089 1697 1007 1014 734 641 931 1312 1814 1583 1467 1242 1084 981 533 589 378 210 502 281 451 16 0 0 0 0 0 0 0 0 0 0
3203 3198 3254 3169 2931 2688 2297 1987 1660 1026 911 888 1364 1179 1740 1599 1542 1529 1210 1138 1006 729 543 177 293 324 21 1 0 0 0 0 0 0 0 0 0 0
3162 3299 3212 3243 3114 2718 2513 2137 1971 1713 1070 747 656 1174 1251 1144 1343 918 923 577 510 404 477 275 202 94 0 0 0 0 0 0 0 0 0 0 0 0
2809 3221 3120 3122 3176 3050 2508 2488 2085 1874 1448 1078 796 803 1105 1051 941 772 573 417 241 239 425 269 84 0 0 0 0 0 0 0 0 0 0 0 0 0
2656 2797 3012 3009 3108 3161 2837 2540 2455 2224 1779 1381 1078 978 1084 1128 882 723 489 319 209 139 42 80 0 0 0 0 0 0 0 0 0 0 0 0 0 0
2949 2673 2775 2921 2934 2972 3004 2738 2500 2385 2190 1807 1481 1255 1191 1061 978 587 277 286 281 94 17 5 0 0 0 0 0 0 0 0 0 0 0 0 0 0
3226 3069 2711 2661 2769 2820 2815 2801 2785 2600 2289 1932 1661 1289 1154 1068 565 229 159 213 154 72 28 7 0 0 0 0 0 0 0 0 0 0 0 0 0 0
3448 3223 2919 2763 2527 2570 2686 2671 2724 2726 2227 1981 1769 1301 1130 675 298 196 139 112 67 42 0 0 0 0 0 0 0 0 0 0 0 0 0 0 0 0
3466 3229 2988 2871 2660 2325 2223 2399 2501 2489 2511 2050 1624 1191 787 346 134 119 106 54 67 0 0 0 0 0 0 0 0 0 0 0 0 0 0 0 0 0
3387 3206 3035 2901 2695 2443 2208 1984 1806 1975 2012 1547 1271 927 410 145 87 54 42 50 40 1 0 0 0 0 0 0 0 0 0 0 0 0 0 0 0 0
2348 2442 2656 2658 2590 2461 2045 2005 1957 1603 1540 1175 1215 465 74 30 87 68 18 18 73 0 2 3 0 0 0 0 0 0 0 0 0 0 0 0 0 0
2248 2261 2113 2085 1885 1945 1445 1466 1447 1813 1172 836 626 272 85 12 22 19 9 1 0 0 0 0 0 0 0 0 0 0 0 0 0 0 0 0 0 0
452 750 1243 1499 1537 1477 1292 1157 1023 963 1018 894 581 131 93 64 15 34 15 23 0 0 0 0 0 0 0 0 0 0 0 0 0 0 0 0 0 0
1 63 481 587 439 430 383 485 226 610 610 492 66 30 48 13 42 0 0 0 0 3 0 0 0 0 0 0 0 0 0 0 0 0 0 0 0 0
67 9 9 15 13 30 60 74 44 17 203 89 59 52 88 30 16 2 0 0 1 7 0 0 0 0 0 0 0 0 0 0 0 0 0 0 0 0

GFSNE_con_mucape_042.txt.gz
CAPE
639 1071 317 49 97 175 19 15 8 7 25 63 45 45 28 0 0 4 0 0 0 0 0 0 0 0 0 0 0 0 0 4 0 12 4 0 0 0
1443 686 875 578 108 103 203 27 10 6 19 20 92 36 23 16 21 54 0 0 0 0 0 0 0 0 0 0 0 0 0 0 0 0 0 0 0 0
1961 1724 951 640 382 135 133 107 85 23 6 0 17 35 34 27 10 98 29 19 0 0 0 0 1 0 0 0 0 0 0 0 0 0 0 0 0 0
1982 2095 1976 1553 988 401 146 96 194 66 25 23 0 321 83 98 58 23 25 32 24 29 27 14 11 29 13 0 0 0 0 0 0 0 0 0 0 0
2195 2213 2176 1963 1630 1134 634 91 296 302 72 43 47 119 296 140 89 45 41 44 78 45 32 30 83 46 55 4 0 0 0 0 0 0 0 0 0 0
1948 2046 1929 2044 2051 1772 1263 670 208 291 439 130 136 108 176 176 59 61 65 58 152 55 74 141 117 45 9 16 2 0 0 0 0 0 0 0 0 0
1968 2045 2183 2182 2148 2062 1970 1816 1231 466 210 345 271 192 163 188 213 65 71 74 80 81 53 82 73 71 18 18 27 1 0 0 0 0 0 0 0 0
1974 1955 1909 2113 2221 2356 2383 2350 2200 1899 1204 230 194 233 173 88 179 163 111 80 105 73 84 89 81 88 64 20 28 29 0 0 0 3 0 0 0 0
2089 2054 2087 1972 2116 2156 2237 2394 2500 2484 2282 1685 1118 436 144 80 36 146 156 138 180 122 145 86 70 75 76 26 55 52 19 0 0 0 0 0 0 0
2367 2313 2252 2274 2179 2166 2284 2171 2298 2468 2575 2491 2181 1833 1308 854 360 21 49 88 182 298 194 138 56 55 31 40 39 43 0 0 0 0 0 0 0 0
2668 2629 2621 2596 2545 2476 2342 2344 2287 2140 2170 2468 2476 2313 1934 1595 1171 724 74 36 73 329 176 103 102 85 41 22 25 9 7 0 0 0 0 0 0 0
2680 2808 2855 2876 2868 2848 2778 2668 2551 2469 2352 2226 2187 2239 2316 2296 2043 1597 966 101 57 261 413 231 219 83 42 55 23 2 1 0 0 0 0 0 0 0
2951 2864 2800 2824 2873 2884 2977 3003 2771 2659 2572 2530 2479 2443 2342 2138 2042 1990 1577 848 131 177 318 346 169 73 8 10 33 6 7 0 0 0 0 0 0 0
3598 3245 3295 3414 3216 3119 3001 2872 2907 2945 2883 2807 2666 2536 2618 2534 2443 2172 1687 1267 632 194 196 226 170 75 37 28 2 7 3 0 0 0 0 0 0 0
3689 3442 3470 3340 3285 3294 3484 3514 2931 2827 2676 2656 2618 2643 2659 2414 2259 2140 1951 1507 1076 710 258 209 115 54 92 19 0 0 33 0 0 0 0 0 0 0
3976 3963 3954 3957 3965 3951 3987 3828 3684 3475 3233 3028 2772 2664 2550 2583 2345 2092 2264 1775 1532 987 452 35 135 63 12 4 17 20 46 0 0 0 0 0 0 0
3825 3905 3769 3559 3465 3427 3479 3503 3440 3437 3418 3381 3301 2981 2592 2198 2061 1954 1899 1856 1377 1062 509 38 21 85 55 47 22 41 38 11 0 0 0 0 0 0
2865 2794 2844 2799 2731 2663 2562 2592 2622 2549 2428 2349 2314 2201 2044 1923 1800 1564 1280 1040 1163 1079 538 36 40 116 61 16 4 9 33 0 0 0 0 0 0 0
2918 2780 2667 2498 2222 1901 1609 1845 2057 2245 2285 2085 1334 1756 1578 1393 1346 1167 997 802 536 396 287 87 0 1 0 21 4 1 0 0 0 0 0 0 0 0
2514 2302 2020 1504 345 0 0 0 0 2 8 196 685 811 960 1164 774 544 606 363 85 98 67 0 0 4 11 6 12 0 0 0 0 0 0 0 0 0
449 0 0 0 1 1 3 1 3 0 0 0 0 24 247 328 365 358 241 49 25 52 30 37 43 42 17 31 12 0 0 0 0 0 0 0 0 0
0 0 0 1 0 2 1 3 5 0 0 0 0 20 64 132 97 65 48 11 1 0 22 60 15 59 53 0 0 0 0 0 0 0 0 0 0 0
0 0 0 0 0 1 2 3 0 8 5 1 0 0 36 52 44 48 4 8 6 0 0 10 42 3 0 0 0 0 0 0 0 0 0 0 0 0

GFSNE_con_mucape_045.txt.gz
CAPE
662 612 204 74 105 147 65 39 25 32 22 38 49 62 61 64 86 43 5 15 0 0 0 0 0 0 0 0 0 0 0 0 0 0 0 0 0 0
1334 706 685 585 109 73 199 157 47 27 28 32 46 76 88 114 51 27 17 23 20 0 0 0 0 0 0 0 0 0 0 0 0 0 0 0 0 0
1453 1520 1118 626 615 378 136 179 264 157 60 48 19 37 62 100 42 34 23 11 28 7 2 0 0 0 0 0 0 0 0 0 0 0 0 0 0 0
1825 1767 1783 1701 1242 693 283 146 166 225 198 154 97 43 1 18 15 20 30 14 30 34 17 2 0 0 0 2 0 0 0 0 0 0 0 0 0 0
1755 1959 1870 1817 1775 1760 1625 1250 252 69 160 179 188 133 82 65 31 5 9 21 1 20 29 12 1 10 0 11 7 1 0 0 0 0 0 0 0 0
1692 1863 1940 1963 1881 1800 1867 1831 1576 914 50 11 151 245 151 60 66 56 38 12 1 1 4 36 4 1 4 20 1 9 5 2 0 0 0 0 0 0
1522 1592 1705 1823 1908 1897 1692 1586 1658 1645 1478 928 233 56 173 187 86 50 19 6 13 17 9 24 24 3 41 39 24 1 8 18 0 0 0 0 0 0
1654 1631 1674 1877 1907 1925 1942 1910 1781 1759 1668 1692 1629 1298 827 163 44 59 27 15 17 31 6 18 18 34 15 30 55 17 20 11 30 20 0 0 0 0
1867 1734 1750 1757 1832 1879 1905 2048 2051 2052 2078 1768 1532 1381 1173 1035 807 387 69 22 19 22 20 9 53 31 56 24 18 13 15 44 36 56 0 0 0 0
2054 2030 2036 2042 2067 2083 2082 2083 2068 2002 1856 1791 1746 1642 1595 1616 1643 1478 1127 851 598 295 26 2 16 95 95 52 71 87 53 53 60 68 0 0 0 0
2181 2224 2280 2298 2308 2350 2419 2483 2492 2468 2404 2368 2211 2055 1937 1856 1841 1863 1786 1592 1284 987 535 54 26 34 221 129 91 126 77 60 58 1 0 0 0 0
2203 2346 2430 2469 2507 2577 2675 2735 2803 2733 2571 2500 2501 2454 2452 2439 2356 2240 2119 1874 1812 1574 1244 760 165 21 104 158 106 45 77 22 20 0 0 0 0 0
2607 2712 2799 2864 2916 2972 2987 3112 2883 2832 3351 2833 2664 2737 2635 2574 2432 2349 2454 2055 1913 1724 1825 1212 769 440 301 107 137 104 30 29 2 1 0 0 0 0
3063 3159 3238 3217 2932 3233 3130 3189 2978 2996 3372 2996 3243 2855 2732 2673 2581 2383 2248 2208 2036 1903 1832 1456 1254 962 664 362 108 74 43 39 16 2 0 0 0 0
3464 3516 3452 3520 3538 3435 3347 3407 3417 3402 3513 3067 3081 3235 2937 2647 2778 2821 2722 2382 2268 2174 2042 1683 1404 1196 799 459 245 36 56 8 1 3 0 0 0 0
3701 3778 3796 3852 3875 3926 3974 3975 3875 3651 3453 3386 3218 3001 2774 2749 2692 2533 2428 2302 2154 1906 1659 1634 1358 883 774 279 24 20 4 7 0 1 7 0 0 0
3785 3781 3853 3881 3960 3593 3122 2868 2725 2621 2387 2156 1900 1759 1634 1441 1719 1928 1877 1767 1783 1697 1227 833 875 925 465 351 54 19 3 10 6 27 42 0 0 0
3808 3604 3374 3241 3261 3152 2678 2503 2027 1684 1522 1335 1171 1108 1042 1036 1141 1080 1064 980 991 1327 1154 462 248 320 180 149 14 42 11 17 34 40 29 1 0 0
3137 3237 3487 2709 2632 2280 1661 286 0 0 0 0 0 1 4 14 106 317 826 1022 736 238 601 293 93 169 99 53 5 16 2 6 29 6 5 0 0 0
2994 2670 2486 2014 1008 1 2 3 3 1 0 6 1 0 0 4 1 2 93 134 166 228 289 69 50 1 53 12 18 19 39 5 10 0 0 0 0 0
2413 1848 698 0 3 2 2 5 3 2 3 4 0 0 0 2 5 81 24 16 52 121 238 159 3 2 5 6 15 23 7 0 5 0 0 0 0 0
413 0 0 0 0 0 0 0 1 4 1 4 2 0 0 0 16 3 2 0 40 61 11 6 0 0 0 30 9 1 0 0 0 0 0 0 0 0
2 2 1 0 8 4 4 0 3 11 7 4 1 0 1 0 0 0 0 5 7 24 3 0 0 0 0 4 1 3 0 0 0 0 0 0 0 0

GFSNE_con_mucape_048.txt.gz
CAPE
913 599 306 98 20 1 0 33 47 31 33 81 57 21 26 135 418 396 292 55 0 0 0 0 0 0 0 0 1 0 0 0 0 0 0 0 0 0
1133 1064 720 552 321 90 106 124 62 32 38 0 22 4 43 91 105 366 170 85 18 0 1 0 0 0 0 0 0 0 0 0 0 0 0 0 0 0
1187 1239 1220 844 529 510 326 99 79 136 164 159 93 47 49 62 100 183 99 54 12 0 0 0 0 0 0 0 0 0 0 0 0 0 0 0 0 0
1306 1289 1407 1457 1456 1356 1197 467 173 88 94 151 196 191 186 144 71 51 47 0 0 3 0 0 2 0 0 0 0 0 0 0 1 0 0 0 0 0
1610 1602 1686 1517 1662 1664 1569 1503 1317 703 199 53 74 74 147 134 126 87 52 82 8 0 8 3 6 10 4 2 0 2 14 1 0 0 0 0 0 0
1687 1724 1732 1767 1781 1782 1606 1608 1510 1526 1590 1554 1220 700 210 29 25 103 134 37 28 10 6 9 6 8 8 12 6 1 24 23 10 7 5 0 0 0
1533 1699 1816 1699 1483 1609 1774 1673 1449 1459 1364 1197 1042 872 969 984 889 572 361 188 181 52 16 43 15 12 32 5 26 15 12 26 32 50 2 3 1 0
1590 1569 1671 1605 1594 1607 1625 1648 1662 1595 1354 1213 1019 1045 962 789 749 752 749 729 446 180 1 35 17 34 28 19 6 24 46 38 37 22 20 34 47 0
1771 1773 1729 1641 1545 1771 1599 1709 1821 1912 1893 1879 1708 1686 1642 1566 1463 1329 1141 1002 905 840 821 860 445 222 67 3 11 40 25 4 2 27 66 16 62 10
1777 1850 1899 1970 1910 1906 1919 1993 1916 1970 2051 2101 2138 2202 2232 2265 2204 2127 2088 1981 1870 1729 1563 1425 1270 991 595 171 16 19 97 37 19 0 2 14 33 13
1952 1980 1955 2017 1875 1878 1909 2048 2144 2131 2208 2340 2438 2532 2524 2431 2413 2478 2421 2303 2036 1950 1739 1864 1625 1519 1333 1055 321 0 56 136 37 13 13 15 17 0
1969 2063 1876 1930 2014 2090 2125 2216 2330 2503 2671 2751 2682 2574 2475 2401 2334 2368 2303 2225 2157 1989 1717 1570 1498 1308 1600 1195 1070 812 3 41 145 48 15 26 0 0
2028 2052 2193 2144 2381 2619 2790 2904 2860 2802 2767 2801 2863 2943 2988 2786 2710 2631 2562 2389 2148 1856 1794 1579 1516 1377 1280 1276 1196 891 910 116 19 72 64 16 6 0
2530 2560 2681 2862 3075 3201 3185 2987 2890 2849 3000 3141 3126 3066 3017 3070 2810 2862 2929 2811 2928 2883 2949 2447 2061 1676 1395 1151 985 762 530 256 20 59 7 20 9 5
2907 2959 3103 3252 3347 3364 3363 3317 3357 3387 3712 3328 3274 3251 2940 2563 2441 2201 2320 2272 2174 2014 1900 1581 1333 984 1046 948 768 673 537 4 3 20 1 0 0 0
3213 3248 3272 3361 3460 3547 3637 3695 3771 3731 3346 2887 2624 2522 2141 1746 1675 1755 1909 1887 1621 1405 1199 1713 817 622 703 541 471 473 335 45 20 1 0 0 1 44
3563 3652 3657 3594 3578 3661 3707 3361 2862 2576 2489 2412 1625 867 872 781 781 958 900 856 728 975 567 786 562 445 623 489 325 257 277 64 9 5 12 13 3 24
3877 3900 3793 3718 3658 2897 3136 2689 2459 2376 1426 28 1 1 52 2 7 8 12 36 14 2 304 477 402 332 247 148 82 125 4 3 5 23 20 12 22 27
3540 3640 3624 3217 3006 2580 2185 2355 1444 15 4 6 0 1 5 8 2 0 0 2 2 30 74 150 246 278 158 139 95 4 2 16 29 12 31 34 18 28
3183 2847 3052 2807 2018 2099 1158 0 2 3 1 2 8 7 0 2 0 6 7 8 0 0 0 7 0 21 155 42 13 1 32 7 19 25 14 5 9 6
2621 2507 2142 2034 1134 5 1 2 3 6 3 2 5 13 0 35 5 2 0 0 0 0 0 0 0 0 0 0 0 5 0 2 29 34 20 11 19 7
2148 1991 1206 171 0 1 2 2 2 1 4 5 9 7 7 4 2 0 0 0 0 0 0 0 0 0 0 0 1 2 0 1 2 3 0 0 0 0
1252 765 90 4 3 0 6 3 2 0 12 1 3 3 3 1 3 0 0 0 0 0 0 0 0 1 0 0 0 5 5 4 1 0 1 0 0 0